Location: Elende
(51.4317°N, 10.6316°E)
Time: 03:27:05
(UTC+00:00)

Cosmos 1627 Rocket - Pass Details

Date: 18 September 2020
Orbit: 951 x 1003 km, 82.9° (Epoch: 22 October)

Event Time Altitude Azimuth Distance (km) Brightness Sun altitude
Rises 19:41:25 0° 349° (N) 3,730 8.2 -21.1°
Reaches altitude 10° 19:43:56 10° 350° (N) 2,781 7.4 -21.4°
Maximum altitude 19:50:22 88° 79° (E) 1,012 4.5 -22.3°
Enters shadow 19:53:35 32° 170° (S) 1,648 5.3 -22.7°
